Location: Makanda
(37.6176°N, 89.2090°W)
Time: 02:13:26
(UTC+00:00)

Cosmos 2341 Rocket - Pass Details

Date: 23 September 2019
Orbit: 967 x 1005 km, 82.9° (Epoch: 15 October)

Event Time Altitude Azimuth Distance (km) Brightness Sun altitude
Rises 01:33:25 0° 350° (N) 3,678 7.4 -20.2°
Reaches altitude 10° 01:35:56 10° 348° (NNW) 2,723 6.7 -20.7°
Maximum altitude 01:42:07 70° 266° (W) 1,026 4.2 -21.9°
Drops below altitude 10° 01:48:15 10° 184° (S) 2,698 6.2 -23.0°
Sets 01:50:45 0° 182° (S) 3,642 6.8 -23.5°
